Location: �perlecques
(50.8057°N, 2.1521°E)
Time: 17:11:45
(UTC+00:00)

SR - All Passes

Search period start: 28 July 2021 00:00
Search period end: 07 August 2021 00:00
Orbit: 577 x 878 km, 66.7° (Epoch: 27 July)

Date Brightness Start Highest point End Pass type
(mag) Time Alt. Az. Time Alt. Az. Time Alt. Az.
28 Jul - 05:28:03 10° SE 05:30:51 14° ESE 05:33:37 10° ENE daylight
28 Jul - 07:06:20 10° SSW 07:12:07 68° ESE 07:17:34 10° NE daylight
28 Jul - 08:49:28 10° W 08:54:36 33° NW 08:59:27 10° NNE daylight
28 Jul - 10:35:02 10° NW 10:38:16 16° NNW 10:41:22 10° NNE daylight
28 Jul - 12:19:25 10° NNW 12:22:28 15° NNE 12:25:24 10° NE daylight
28 Jul - 14:01:28 10° NNW 14:06:06 34° NE 14:10:22 10° ESE daylight
28 Jul - 15:43:37 10° NW 15:48:23 50° WSW 15:52:44 10° SSE daylight
29 Jul - 06:17:03 10° S 06:22:25 40° ESE 06:27:33 10° NE daylight
29 Jul - 07:58:54 10° WSW 08:04:30 49° NW 08:09:44 10° NNE daylight
29 Jul - 09:43:54 10° WNW 09:47:46 19° NNW 09:51:28 10° NNE daylight
29 Jul - 11:29:11 10° NNW 11:31:55 14° N 11:34:32 10° NE daylight
29 Jul - 13:11:44 10° NNW 13:15:52 24° NNE 13:19:42 10° E daylight
29 Jul - 14:53:39 10° NW 14:58:39 89° NE 15:03:12 10° SE daylight
29 Jul - 16:37:14 10° WNW 16:39:52 15° WSW 16:42:22 10° SW daylight
30 Jul - 05:28:24 10° SSE 05:32:53 23° ESE 05:37:11 10° ENE daylight
30 Jul - 07:08:43 10° SW 07:14:31 78° NW 07:19:59 10° NE daylight
30 Jul - 08:52:49 10° W 08:57:24 25° NNW 09:01:43 10° NNE daylight
30 Jul - 10:38:33 10° NW 10:41:19 14° N 10:44:01 10° NNE daylight
30 Jul - 12:21:56 10° NNW 12:25:28 18° NNE 12:28:48 10° ENE daylight
30 Jul - 14:03:50 10° NNW 14:08:44 51° NE 14:13:12 10° ESE daylight
30 Jul - 15:46:24 10° NW 15:50:30 28° WSW 15:54:19 10° S daylight
31 Jul - 04:41:02 10° SE 04:43:30 13° ESE 04:45:55 10° ENE daylight
31 Jul - 06:18:58 10° SSW 06:24:42 65° ESE 06:30:07 10° NE daylight
31 Jul - 08:01:58 10° WSW 08:07:09 34° NW 08:12:01 10° NNE daylight
31 Jul - 09:47:32 10° NW 09:50:46 16° NNW 09:53:53 10° NNE daylight
31 Jul - 11:32:00 10° NNW 11:34:58 15° NNE 11:37:48 10° NE daylight
31 Jul - 13:14:05 10° NNW 13:18:38 32° NE 13:22:50 10° ESE daylight
31 Jul - 14:56:11 10° NW 15:00:57 53° WSW 15:05:19 10° SSE daylight
01 Aug - 05:29:44 10° S 05:35:01 38° ESE 05:40:04 10° NE daylight
01 Aug - 07:11:27 10° WSW 07:17:03 51° NW 07:22:18 10° NNE daylight
01 Aug - 08:56:22 10° WNW 09:00:17 19° NNW 09:04:01 10° NNE daylight
01 Aug - 10:41:45 10° NNW 10:44:24 14° N 10:46:57 10° NNE daylight
01 Aug - 12:24:20 10° NNW 12:28:22 23° NNE 12:32:08 10° E daylight
01 Aug - 14:06:14 10° NW 14:11:12 84° NE 14:15:44 10° SE daylight
01 Aug - 15:49:41 10° WNW 15:52:28 16° WSW 15:55:10 10° SW daylight
02 Aug - 04:41:11 10° SSE 04:45:30 22° ESE 04:49:39 10° ENE daylight
02 Aug - 06:21:18 10° SW 06:27:06 82° NW 06:32:32 10° NE daylight
02 Aug - 08:05:19 10° W 08:09:55 25° NNW 08:14:17 10° NNE daylight
02 Aug - 09:51:03 10° NW 09:53:49 14° N 09:56:29 10° NNE daylight
02 Aug - 11:34:33 10° NNW 11:37:58 17° NNE 11:41:12 10° ENE daylight
02 Aug - 13:16:26 10° NNW 13:21:16 49° NE 13:25:42 10° ESE daylight
02 Aug - 14:58:55 10° NW 15:03:05 30° WSW 15:06:58 10° S daylight
03 Aug - 03:54:06 10° SE 03:56:08 12° ESE 03:58:08 10° E daylight
03 Aug - 05:31:36 10° SSW 05:37:18 61° ESE 05:42:40 10° NE daylight
03 Aug - 07:14:30 10° WSW 07:19:42 35° NW 07:24:34 10° NNE daylight
03 Aug - 09:00:00 10° NW 09:03:16 16° NNW 09:06:24 10° NNE daylight
03 Aug - 10:44:36 10° NNW 10:47:27 15° N 10:50:12 10° NE daylight
03 Aug - 12:26:41 10° NNW 12:31:09 31° NE 12:35:17 10° E daylight
03 Aug - 14:08:45 10° NW 14:13:31 56° WSW 14:17:54 10° SSE daylight
04 Aug - 04:42:26 10° S 04:47:38 36° ESE 04:52:34 10° NE daylight
04 Aug - 06:24:00 10° WSW 06:29:37 54° NW 06:34:52 10° NNE daylight
04 Aug - 08:08:51 10° WNW 08:12:48 20° NNW 08:16:33 10° NNE daylight
04 Aug - 09:54:18 10° NNW 09:56:53 14° N 09:59:23 10° NNE daylight
04 Aug - 11:36:57 10° NNW 11:40:52 22° NNE 11:44:33 10° E daylight
04 Aug - 13:18:49 10° NW 13:23:45 79° NE 13:28:15 10° SE daylight
04 Aug - 15:02:07 10° WNW 15:05:04 17° WSW 15:07:55 10° SSW daylight
05 Aug - 03:53:59 10° SSE 03:58:07 21° ESE 04:02:06 10° ENE daylight
05 Aug - 05:33:54 10° SW 05:39:41 86° NW 05:45:05 10° NE daylight
05 Aug - 07:17:49 10° W 07:22:27 26° NNW 07:26:50 10° NNE daylight
05 Aug - 09:03:34 10° NW 09:06:18 14° N 09:08:57 10° NNE daylight
05 Aug - 10:47:09 10° NNW 10:50:28 17° NNE 10:53:36 10° ENE daylight
05 Aug - 12:29:01 10° NNW 12:33:48 46° NE 12:38:10 10° ESE daylight
05 Aug - 14:11:27 10° NW 14:15:40 31° WSW 14:19:36 10° S daylight
06 Aug - 03:07:17 10° ESE 03:08:45 11° ESE 03:10:13 10° E visible
06 Aug - 04:44:15 10° SSW 04:49:53 58° ESE 04:55:11 10° NE daylight
06 Aug - 06:27:00 10° WSW 06:32:14 37° NW 06:37:08 10° NNE daylight
06 Aug - 08:12:29 10° NW 08:15:46 16° NNW 08:18:54 10° NNE daylight
06 Aug - 09:57:11 10° NNW 09:59:57 14° N 10:02:35 10° NE daylight
06 Aug - 11:39:17 10° NNW 11:43:40 30° NE 11:47:44 10° E daylight
06 Aug - 13:21:19 10° NW 13:26:05 60° WSW 13:30:27 10° SSE daylight
